EW2309 Weather Reports


Display with metric or nautical units.
time (UTC)temp
F
wind
direction
speed
MPH
gust
MPH
rain 1hr
in
rain 24hr
in
rain mn
in
humidity
%
barometer
mb
20260903043018 78 184 0.0 0.0 0.00 0.00 0.00 79 1015.7
20260903041528 78 184 0.0 0.0 0.00 0.00 0.00 79 1015.6
20260903040018 78 184 0.0 0.0 0.00 0.00 0.00 79 1015.7
20260903034516 78 184 0.0 0.0 0.00 0.00 0.00 79 1015.7
20260903033018 78 184 0.0 0.0 0.00 0.00 0.00 78 1015.8
20260903031523 78 184 0.0 0.0 0.00 0.00 0.00 78 1016.0
20260903024502 79 184 0.0 0.0 0.00 0.00 0.00 77 1015.9
20260903023002 79 184 0.0 0.0 0.00 0.00 0.00 76 1016.0
20260903021501 80 184 0.0 0.0 0.00 0.00 0.00 76 1015.8
20260903020000 80 184 0.0 0.0 0.00 0.00 0.00 76 1015.8
20260903014619 80 184 0.0 0.0 0.00 0.00 0.00 76 1015.7
20260903013105 80 184 0.0 0.0 0.00 0.00 0.00 75 1015.5
20260903011620 81 184 0.0 0.0 0.00 0.00 0.00 73 1015.3
20260903010109 82 184 0.0 0.0 0.00 0.00 0.00 71 1015.1
20260903004601 82 184 0.0 0.0 0.00 0.00 0.00 71 1015.1
20260903003038 83 184 0.0 0.0 0.00 0.00 0.00 71 1015.1
20260903001546 83 184 0.0 0.0 0.00 0.00 0.00 70 1015.1
20260903000019 84 184 0.0 0.0 0.00 0.00 0.00 71 1014.9
20260902234520 85 184 0.0 0.0 0.00 0.00 0.00 68 1015.0
20260902233002 86 184 0.0 0.0 0.00 0.00 0.00 65 1015.0
20260902231603 87 184 0.0 0.0 0.00 0.00 0.00 64 1015.0
20260902230053 88 184 0.0 0.0 0.00 0.00 0.00 64 1015.0
20260902224543 88 184 0.0 0.0 0.00 0.00 0.00 64 1015.1
20260902223035 89 92 0.0 0.0 0.00 0.00 0.00 63 1015.1
20260902221529 90 92 0.0 0.0 0.00 0.00 0.00 62 1015.1
20260902220005 90 92 0.0 0.0 0.00 0.00 0.00 59 1015.1
20260902214509 91 92 0.0 0.0 0.00 0.00 0.00 62 1015.2
20260902213050 92 93 0.0 0.0 0.00 0.00 0.00 57 1015.3
20260902211549 95 92 0.0 1.0 0.00 0.00 0.00 54 1015.4
20260902210048 96 224 0.0 2.0 0.00 0.00 0.00 50 1015.5
20260902204549 95 217 0.0 2.0 0.00 0.00 0.00 54 1015.4
20260902203044 94 123 0.0 2.0 0.00 0.00 0.00 54 1015.6
20260902201552 92 154 1.0 2.0 0.00 0.00 0.00 57 1015.7
20260902200044 90 171 0.0 0.0 0.00 0.00 0.00 62 1016.0
20260902194549 90 171 0.0 0.0 0.00 0.00 0.00 63 1016.1
20260902193018 91 171 0.0 1.0 0.00 0.00 0.00 62 1016.4
20260902191518 95 182 1.0 2.0 0.00 0.00 0.00 55 1016.5
20260902190057 95 44 1.0 3.0 0.00 0.00 0.00 54 1016.5
20260902184554 94 180 1.0 3.0 0.00 0.00 0.00 56 1016.8
20260902183032 92 240 1.0 4.0 0.00 0.00 0.00 57 1016.9
20260902181530 92 21 0.0 0.0 0.00 0.00 0.00 61 1017.2
20260902180010 91 18 0.0 2.0 0.00 0.00 0.00 62 1017.2
20260902174511 90 17 0.0 1.0 0.00 0.00 0.00 62 1017.5
20260902173112 90 17 0.0 3.0 0.00 0.00 0.00 62 1017.7
20260902171552 90 173 1.0 3.0 0.00 0.00 0.00 63 1017.9
20260902170045 89 22 2.0 4.0 0.00 0.00 0.00 64 1018.1
20260902164524 87 338 0.0 1.0 0.00 0.00 0.00 67 1018.3
20260902163022 87 82 0.0 0.0 0.00 0.00 0.00 72 1018.5
20260902161502 86 88 0.0 2.0 0.00 0.00 0.00 74 1018.6
20260902160109 86 88 0.0 3.0 0.00 0.00 0.00 72 1018.7
20260902154537 84 92 0.0 2.0 0.00 0.00 0.00 76 1018.8
20260902153034 83 92 0.0 2.0 0.00 0.00 0.00 78 1018.8
20260902151518 81 92 1.0 3.0 0.00 0.00 0.00 83 1018.9
20260902150008 80 158 0.0 1.0 0.00 0.00 0.00 85 1018.9
20260902144548 79 136 0.0 0.0 0.00 0.00 0.00 89 1018.9
20260902143045 77 134 0.0 0.0 0.00 0.00 0.00 90 1018.8
20260902141525 76 135 0.0 0.0 0.00 0.00 0.00 93 1018.6
20260902140020 75 135 0.0 0.0 0.00 0.00 0.00 94 1018.7
20260902134610 74 135 0.0 0.0 0.00 0.00 0.00 95 1018.7
20260902133103 73 135 0.0 0.0 0.00 0.00 0.00 96 1018.7
20260902131540 73 77 0.0 0.0 0.00 0.00 0.00 96 1018.7
20260902130032 72 77 0.0 0.0 0.00 0.00 0.00 96 1018.5
20260902124515 71 78 0.0 0.0 0.00 0.00 0.00 96 1018.4
20260902123016 71 78 0.0 0.0 0.00 0.00 0.00 95 1018.5
20260902121550 71 78 0.0 0.0 0.00 0.00 0.00 95 1018.4
20260902120049 71 78 0.0 0.0 0.00 0.00 0.00 95 1018.2
20260902114541 71 78 0.0 0.0 0.00 0.00 0.00 94 1018.0
20260902113036 71 78 0.0 0.0 0.00 0.00 0.00 94 1017.8
20260902111533 71 78 0.0 0.0 0.00 0.00 0.00 94 1017.7
20260902110037 71 78 0.0 0.0 0.00 0.00 0.00 93 1017.6
20260902104545 71 78 0.0 0.0 0.00 0.00 0.00 93 1017.4
20260902103027 71 78 0.0 0.0 0.00 0.00 0.00 93 1017.3
20260902101529 71 78 0.0 0.0 0.00 0.00 0.00 93 1017.3
20260902100026 71 78 0.0 0.0 0.00 0.00 0.00 92 1017.2
20260902094507 72 78 0.0 0.0 0.00 0.00 0.00 92 1017.2
20260902093007 72 78 0.0 0.0 0.00 0.00 0.00 92 1017.0
20260902091550 72 78 0.0 0.0 0.00 0.00 0.00 92 1016.9
20260902090048 72 78 0.0 0.0 0.00 0.00 0.00 91 1016.8
20260902084531 72 78 0.0 0.0 0.00 0.00 0.00 91 1016.7
20260902083030 72 78 0.0 0.0 0.00 0.00 0.00 91 1016.5
20260902081512 72 78 0.0 0.0 0.00 0.00 0.00 91 1016.5
20260902080015 73 78 0.0 0.0 0.00 0.00 0.00 90 1016.4
20260902074554 73 78 0.0 0.0 0.00 0.00 0.00 90 1016.4
20260902073054 73 78 0.0 0.0 0.00 0.00 0.00 89 1016.5
20260902071539 73 78 0.0 0.0 0.00 0.00 0.00 89 1016.5
20260902070038 73 78 0.0 0.0 0.00 0.00 0.00 89 1016.6
20260902064517 73 78 0.0 0.0 0.00 0.00 0.00 89 1016.7
20260902063017 74 78 0.0 0.0 0.00 0.00 0.00 88 1016.8
20260902061601 74 77 0.0 0.0 0.00 0.00 0.00 87 1016.7
20260902060133 74 77 0.0 0.0 0.00 0.00 0.00 86 1016.8
20260902054544 74 77 0.0 0.0 0.00 0.00 0.00 85 1016.9
20260902053043 74 77 0.0 0.0 0.00 0.00 0.00 84 1017.0
20260902051523 75 77 0.0 0.0 0.00 0.00 0.00 84 1017.0
20260902050024 75 77 0.0 0.0 0.00 0.00 0.00 83 1016.8
20260902044508 75 77 0.0 0.0 0.00 0.00 0.00 81 1016.9